NOAA 16 DEB

Satellite information

Favourite Embed

Satellite Type and Status

DEBRISIN ORBIT

Key statistics

Satellite NOAA 16 DEB at a glance.

Uptime

9056

Days in orbit

Revolutions

≈ 14.8

Per day

Orbit

SSO

Sun Synchronous Orbit

Inclination

98.9

Latest

Satellite identification and parameters

Extended collection of information and parameters for NOAA 16 DEB.

Object identification

Identified? True

Debris? True

Object name: NOAA 16 DEB

International designator: 2000-055BZ

Object number (NORAD): 41142

Object ID (CCSDS): 41142

Country: UNITED STATES OF AMERICA (US)

Current information (Y/N): Y

RCS size: SMALL

Orbital parameters

Period: 97.451 minutes

Inclination: 98.8642 deg

SMA: 7014.82 km

Apoapsis: 654.15 km

Periapsis: 619.221 km

RAAN: 10.7484 deg

Eccentricy: 0.0024896

Argument of periapsis: 251.2382 deg

Mean anomaly: 108.6124 deg

Mean motion: 14.7767158 rev/day

Mean motion (dot): 0.00019145 rev/day2

B* drag term: 0.002662 1/REarth

Two-line elements (TLE)

Creation date: July 6, 2025, 6:05 p.m.

Reference frame: TEME

Reference center: EARTH

Epoch: July 5, 2025, 10:49 p.m. UTC

TLE line 0: 0 NOAA 16 DEB

TLE line 1: 1 41142U 00055BZ 25186.95098910 .00019145 00000-0 26620-2 0 9993

TLE line 2: 2 41142 98.8642 10.7484 0024896 251.2382 108.6124 14.77671580501999

Live tracking on map

Real-time ground track for satellite NOAA 16 DEB.

In-orbit conjunctions

A list of the most updated potential collisions computed for object NOAA 16 DEB.

Target Orbit TCA Probability of collision Miss distance Type
SL-18 DEB LEO 2025-06-28 12:19:18 0.0001633409 90.0 (m) DEBRIS
CZ-6A DEB LEO 2025-02-03 21:13:44 0.0001113256 520.0 (m) DEBRIS
DELTA 1 DEB SSO 2024-06-04 05:12:56 0.0001544161 182.0 (m) DEBRIS

Associated space launch

The NOAA K, L and M POES satellites begin the fifth generation of improved environmental monitoring in support of NOAA missions. The instrument payload has significant improvements and additions/deletions. The instrument changes have effected the spacecraft subsystems and data formats.

NOAA 16 DEB was lifted into orbit during the mission ‘Titan II SLV | NOAA 16’, on board a Titan II SLV space rocket.

The launch took place on Sept. 21, 2000, 10:22 a.m. from Space Launch Complex 4W.

For more information about the launch, click the button.

Launch to space Titan II SLV | NOAA 16
Titan II SLV | NOAA 16

Agency: N/A

Status: Launch Successful

Launch date: Sept. 21, 2000, 10:22 a.m. UTC

Rocket: Titan II SLV

Launch pad: Space Launch Complex 4W

Location: Vandenberg SFB, CA, USA

...

Latest news about this satellite

There are no fresh news available about this satellite. Check back as we update our databases every day.


Newsletter sign-up

Weekly statistics, charts and insights to help you stay on top of the space industry.